#timestamp,LO_Frequency,Hit,StdDev 
1623279615.3,286047000.1,N
1623279635.2,286046999.9,N
1623279655.0,286047001.0,N
1623279655.9,286047001.0,N
1623279675.8,286047000.9,N
1623279695.6,286046998.1,N
1623279715.4,286046999.9,N
1623279735.3,286047000.4,N
1623279755.1,286046998.6,N
1623279775.8,286046998.3,N
1623279795.7,286047001.1,N
1623279815.5,286046998.6,N
1623279835.4,286047000.7,N
1623279855.2,286047001.1,N
1623279875.0,286047001.1,N
1623279875.9,286047001.1,N
1623279895.8,286046998.7,N
1623279915.6,286047001.2,N
1623279935.4,286047000.2,N
1623279955.3,286047000.5,N
1623279975.1,286047002.8,N
1623279995.9,286047001.6,N
1623280015.7,286047000.0,N
1623280035.5,286047000.1,N
1623280055.4,286047002.0,N
1623280075.2,286047002.7,N
1623280095.0,286047002.7,N
1623280095.9,286047002.7,N
1623280115.8,286047000.7,N
1623280135.6,286047000.6,N
1623280155.5,286047002.5,N
1623280175.3,286047002.3,N
1623280195.2,286046999.9,N
1623280215.9,286047002.8,N
1623280235.7,286047000.6,N
1623280255.6,286047000.4,N
1623280275.4,286047002.1,N
1623280295.3,286047002.8,N
1623280315.1,286047001.6,N
1623280316.0,286047001.6,N
1623280335.8,286047001.9,N
1623280355.7,286047002.7,N
1623280375.5,286047002.5,N
1623280395.4,286046999.7,N
1623280415.2,286047000.3,N
1623280435.0,286047001.0,N
1623280435.9,286047001.0,N
1623280455.8,286047000.5,N
1623280475.6,286046999.7,N
1623280495.4,286047000.4,N
1623280515.3,286047000.6,N
1623280535.1,286047001.0,N
1623280555.9,286046998.6,N
1623280575.7,286047002.2,N
1623280595.5,286047002.8,N
1623280615.4,286046999.8,N
1623280635.2,286047002.5,N
1623280655.1,286047001.6,N
1623280656.0,286047001.6,N
1623280675.8,286047002.8,N
1623280695.7,286047002.6,N
1623280715.5,286047002.1,N
1623280735.3,286047001.8,N
1623280755.2,286046999.8,N
1623280775.0,286047002.6,N
1623280775.9,286047002.6,N
1623280795.7,286047000.1,N
1623280815.6,286047002.5,N
1623280835.4,286047001.7,N
1623280855.3,286047001.7,N
1623280875.1,286046999.8,N
1623280876.0,286046999.8,N
1623280895.8,286047000.2,N
1623280915.7,286047002.6,N
1623280935.5,286047002.7,N
1623280955.3,286047002.5,N
1623280975.2,286047001.4,N
1623280995.0,286047001.6,N
1623280995.9,286047001.6,N
1623281015.8,286047002.4,N
1623281035.6,286047002.1,N
1623281055.4,286047000.3,N
1623281075.3,286047000.9,N
1623281095.1,286047001.2,N
1623281115.9,286046998.4,N
1623281135.7,286047000.7,N
1623281155.5,286047001.2,N
1623281175.4,286046998.2,N
1623281195.2,286047000.5,N
1623281215.1,286047002.7,N
1623281216.0,286047002.7,N
1623281235.8,286047002.3,N
1623281255.6,286047001.4,N
1623281275.5,286047001.6,N
1623281295.3,286046999.9,N
1623281315.1,286046999.8,N
1623281335.9,286047001.2,N
1623281355.7,286047000.1,N
1623281375.6,286046999.8,N
1623281395.4,286047001.7,N
1623281415.2,286046999.9,N
1623281435.1,286047002.3,N
1623281436.0,286047002.3,N
1623281455.8,286047000.0,N
1623281475.7,286047000.0,N
1623281495.5,286047001.1,N
1623281515.3,286046999.5,N
1623281535.2,286046997.2,N
1623281555.0,286046999.6,N
1623281555.9,286046999.6,N
1623281575.8,286046997.4,N
1623281595.6,286046997.3,N
1623281615.4,286046997.2,N
1623281635.3,286046998.7,N
1623281655.1,286046999.0,N
1623281675.8,286046997.0,N
1623281695.7,286046996.5,N
1623281715.5,286046998.8,N
1623281735.4,286046996.8,N
1623281755.2,286046997.6,N
1623281775.0,286046997.3,N
1623281775.9,286046997.3,N
1623281795.8,286046996.8,N
1623281815.6,286046997.2,N
1623281835.5,286046996.8,N
1623281855.3,286046996.6,N
1623281875.1,286046997.8,N
1623281895.9,286046995.4,N
1623281915.7,286046997.5,N
1623281935.5,286046995.7,N
1623281955.4,286046995.3,N
1623281975.2,286046994.9,N
1623281995.1,286046996.3,N
1623281996.0,286046996.3,N
1623282015.8,286046994.5,Y
1623282035.6,286046997.8,P
1623282055.5,286046997.7,P
1623282075.3,286046996.9,P
1623282095.2,286046996.9,Y
1623282115.9,286047000.7,P
1623282135.7,286047000.3,N
1623282155.6,286047000.5,N
1623282175.4,286047000.0,N
1623282195.2,286046998.7,N
1623282215.1,286046999.2,N
1623282216.0,286046999.2,N
1623282235.8,286046996.8,Y
1623282255.7,286046999.2,P
1623282275.5,286046997.0,P
1623282295.3,286046997.0,N
1623282315.2,286046996.9,N
1623282335.0,286046997.7,N
1623282335.9,286046997.7,N
1623282355.7,286046995.5,Y
1623282375.6,286046996.6,P
1623282395.4,286046996.9,P
1623282415.3,286046999.1,N
1623282435.1,286047000.7,N
1623282455.8,286047000.1,N
1623282475.7,286047002.4,N
1623282495.5,286047002.3,N
1623282515.4,286047002.7,N
1623282535.5,286046999.7,N
1623282555.3,286046999.8,N
1623282575.2,286047001.6,N
1623282595.9,286047002.5,N
1623282615.7,286047002.4,N
1623282635.6,286047001.9,N
1623282655.4,286047002.4,N
1623282675.3,286047002.6,N
1623282695.1,286047002.3,N
1623282696.0,286047002.3,N
1623282715.8,286047001.4,N
1623282735.7,286047004.4,N
1623282755.5,286047004.1,N
1623282775.4,286047004.3,N
1623282795.2,286047004.0,N
1623282815.0,286047003.0,N
1623282815.9,286047003.0,N
1623282835.8,286047005.7,N
1623282855.6,286047002.9,N
1623282875.4,286047003.0,N
1623282895.3,286047006.0,N
1623282915.1,286047003.6,N
1623282935.9,286047003.1,N
1623282955.7,286047004.2,N
1623282975.5,286047002.9,N
1623282995.4,286047004.1,N
1623283015.2,286047005.9,Y
1623283035.0,286047001.9,P
1623283035.9,286047001.9,P
1623283055.8,286047002.8,P
1623283075.6,286047004.0,Y
1623283095.5,286047000.8,P
1623283115.3,286046998.7,N
1623283135.1,286047001.0,N
1623283155.9,286046998.8,N
1623283175.7,286046998.7,N
1623283195.5,286047000.4,N
